ARIANE 5 DEB (SYLDA), 41947

Orbit data source: Space-Track

ARIANE 5 DEB (SYLDA), 41947 is space debris in HEO originally from a launch on Tue, 14 Feb 2017 UTC launched from the French Guiana (FRGUI). Debris objects in space refer to the collection of defunct objects orbiting the Earth. Examples of debris include non-operational satellites, rocket bodies, and fragments generated from explosions, collisions, or faulty payload assembly.

Loading next visibility...
Identifier
41947, 2017-007D
Orbit
HEO
Last TLE update
10 hours ago
Origin
Manufacturer
ADS/Bremen
Mission
Spacecraft
Bus & Motor
SYLDA 5, Unknown motor
Mass
440 kg wet, 440 kg dry
Launch date (UTC)
2017-02-14 (8 years ago)
Launch vehicle
Unknown
Launch site
French Guiana (FRGUI)
Object type
Payload
Rocket body
Debris
Shape & HBR
Cyl, 5.5 m
Radar Cross Section
27.391 m², Large (>1 m²)

Expand to show TLE details & history

TLE from 10 hours ago
0 ARIANE 5 DEB (SYLDA)
1 41947U 17007D   25183.73997957  .00103514  00000-0  73890-2 0  9998
2 41947   3.9465 262.8120 5210087 221.5765  84.2402  5.33213345 92130
Epoch: 2025-07-02T17:45Z
TLE epoch observation values (Epoch: 2025-07-02T17:45:34.234Z)
Latitude
0.00001°
Longitude
75.47302°
Altitude
10,158.242 km
Speed
4.406 km/s
True Right ascension
17h 31m 31s
True Declination
0° 00' 00"
Sunlit
Object was in daylight at epoch
Visualization orbit readout
Latitude
2.19583°
Longitude
108.6456°
Altitude
14,404.841 km
Speed
3.092 km/s
Apparent Right ascension
20h 37m 36s
Apparent Declination
-9° 40' 59"
Sunlit
Object is in daylight
Visualization observer readout
Local Sidereal Time
15:25:01
Azimuth
105.025° ESE
Elevation
2.716°
Doppler factor
1
Orbital elements
Apogee altitude
14,680.29 km
Perigee altitude
253.517 km
Semi-major axis
13,845.04 km
Eccentricity
0.52101
Inclination
3.9465°
RAAN
262.812°
Arg. of periapsis
221.5765°
True anomaly
Unknown
Mean anomaly
84.2402°
Eccentric anomaly
Unknown
Mean motion
1.3323 °/min
Orbital period
270.21 mins
BSTAR
0.007389
Loading maneuver chart data...
Loading SW <> Apogee altitude chart data...
Loading historical data...
Loading historical data...
Loading historical data...
Loading historical data...
Loading historical data...
Loading historical data...
Loading historical data...
Other satellites on launch #7 in the year 2017 (2017-02-14 UTC)

ARIANE 5 DEB (SYLDA) Visibility forecast

Observer location: undefined°, undefined°

Span
Click to sort rows by Start time (UTC) header in descending order
Start Az.
Max El. time (UTC)
Max El. Az.
Max El.
End time (UTC)
End Az.
183 mins2025-07-03 06:56:48.258Z226.76° WSW2025-07-03 08:33:48.258Z174.667° S32.318°2025-07-03 09:59:48.258Z124.171° SE
70 mins2025-07-03 13:40:48.258Z247.986° W2025-07-03 14:34:48.258Z214.482° SW18.991°2025-07-03 14:50:48.258Z174.41° S
|